Terminal Aerodrome Forecast
Issued by NWS Wilmington, NC

Home | Current Version | Previous Version | Text Only | Print | Product List | Glossary On
Versions: 1 2 3 4 5 6 7 8 9 10 11 12 13 14 15 16 17 18 19 20 21 22 23 24
000
FTUS42 KILM 301500 AAD
TAFMYR
TAF AMD
KMYR 301600Z 3016/3112 04011KT P6SM BKN015
     FM301630 02012KT P6SM SCT040
     FM302300 03006KT P6SM SCT035=

USA.gov is the U.S. government's official web portal to all federal, state and local government web resources and services.